Change the Weather History Date:

Sunday, December 9, 2012

  Actual Average (KDMN) Record (KDMN)
Temperature  
Mean Temperature 40 °F 42 °F  
Max Temperature 55 °F 57 °F 77 °F (1958)
Min Temperature 24 °F 27 °F 8 °F (1953)
Degree Days  
Heating Degree Days 26    
Moisture  
Dew Point 18 °F    
Average Humidity 41    
Maximum Humidity 74    
Minimum Humidity 21    
Precipitation  
Precipitation 0.00 in 0.03 in 0.42 in (1982)
Month to date precipitation 0.28  
Year to date precipitation 10.94  
Sea Level Pressure  
Sea Level Pressure 30.02 in    
Wind  
Wind Speed 12 mph (NW)    
Max Wind Speed 26 mph    
Max Gust Speed 37 mph    
Visibility 10 miles    
Events      
T = Trace of Precipitation, MM = Missing Value Source: NWS Daily Summary

Daily Weather History Graph

Daily Weather History Graph

Search for Another Location

Airport or City:

Trip Planner

Search our weather history database for the weather conditions in past years. The results will help you decide how hot, cold, wet, or windy it might be!

Date:

Astronomy

Dec. 09, 2012 Rise Set
Actual Time 7:03 AM MST 5:06 PM MST
Civil Twilight 6:36 AM MST 5:34 PM MST
Nautical Twilight 6:05 AM MST 6:04 PM MST
Astronomical Twilight 5:35 AM MST 6:34 PM MST
Moon 2:49 AM MST (12/9) 2:07 PM MST (12/9)
Length of Visible Light 10h 57m
Length of Day
10h 03m
Waning Crescent, 18% of the Moon is Illuminated
Dec 9
Waning Crescent
Dec 13
New
Dec 19
First Quarter
Dec 28
Full
Jan 4
Last Quarter

Hourly Weather History & Observations

Time (MST) Temp. Windchill Dew Point Humidity Pressure Visibility Wind Dir Wind Speed Gust Speed Precip Events Conditions
12:15 AM 37.4 °F 30.3 °F 21.2 °F 52% 30.00 in 10.0 mi NW 10.4 mph - N/A   Clear
12:35 AM 35.6 °F 28.0 °F 21.2 °F 56% 30.01 in 10.0 mi NNW 10.4 mph - N/A   Clear
12:55 AM 35.6 °F 27.5 °F 21.2 °F 56% 30.01 in 10.0 mi NNW 11.5 mph - N/A   Clear
1:15 AM 37.4 °F 29.8 °F 23.0 °F 56% 30.01 in 10.0 mi NW 11.5 mph - N/A   Clear
1:35 AM 35.6 °F 28.0 °F 21.2 °F 56% 30.01 in 10.0 mi NW 10.4 mph - N/A   Clear
1:55 AM 33.8 °F 26.4 °F 21.2 °F 60% 30.01 in 10.0 mi NW 9.2 mph - N/A   Clear
2:15 AM 35.6 °F 28.6 °F 23.0 °F 60% 30.02 in 10.0 mi NW 9.2 mph - N/A   Clear
2:35 AM 30.2 °F 21.9 °F 19.4 °F 64% 30.01 in 10.0 mi NW 9.2 mph - N/A   Clear
2:55 AM 30.2 °F 22.6 °F 19.4 °F 64% 30.01 in 10.0 mi NW 8.1 mph - N/A   Clear
3:15 AM 30.2 °F 20.8 °F 19.4 °F 64% 30.01 in 10.0 mi NNW 11.5 mph - N/A   Clear
3:35 AM 30.2 °F 22.6 °F 19.4 °F 64% 30.01 in 10.0 mi NNW 8.1 mph - N/A   Clear
3:55 AM 30.2 °F 23.4 °F 19.4 °F 64% 30.01 in 10.0 mi NW 6.9 mph - N/A   Clear
4:15 AM 32.0 °F 25.6 °F 23.0 °F 69% 30.01 in 10.0 mi NW 6.9 mph - N/A   Clear
4:35 AM 32.0 °F 24.8 °F 21.2 °F 64% 30.01 in 10.0 mi NW 8.1 mph - N/A   Clear
4:55 AM 30.2 °F 22.6 °F 21.2 °F 69% 30.01 in 10.0 mi NW 8.1 mph - N/A   Clear
5:15 AM 24.8 °F 16.9 °F 17.6 °F 74% 30.01 in 10.0 mi NNW 6.9 mph - N/A   Clear
5:35 AM 26.6 °F 20.0 °F 19.4 °F 74% 30.01 in 10.0 mi NW 5.8 mph - N/A   Clear
5:55 AM 28.4 °F 20.4 °F 19.4 °F 69% 30.01 in 10.0 mi North 8.1 mph - N/A   Clear
6:15 AM 30.2 °F 22.6 °F 19.4 °F 64% 30.01 in 10.0 mi North 8.1 mph - N/A   Clear
6:35 AM 32.0 °F 25.6 °F 19.4 °F 60% 30.02 in 10.0 mi NNW 6.9 mph - N/A   Clear
6:55 AM 32.0 °F 25.6 °F 17.6 °F 55% 30.03 in 10.0 mi WNW 6.9 mph - N/A   Clear
7:15 AM 32.0 °F 25.6 °F 19.4 °F 60% 30.03 in 10.0 mi NW 6.9 mph - N/A   Clear
7:35 AM 32.0 °F 26.4 °F 19.4 °F 60% 30.03 in 10.0 mi NW 5.8 mph - N/A   Clear
7:55 AM 35.6 °F 29.9 °F 19.4 °F 52% 30.03 in 10.0 mi WNW 6.9 mph - N/A   Clear
8:15 AM 37.4 °F 32.1 °F 21.2 °F 52% 30.03 in 10.0 mi WNW 6.9 mph - N/A   Clear
8:35 AM 41.0 °F 35.8 °F 21.2 °F 45% 30.03 in 10.0 mi NW 8.1 mph - N/A   Clear
8:55 AM 44.6 °F 39.7 °F 23.0 °F 43% 30.03 in 10.0 mi WNW 9.2 mph - N/A   Clear
9:15 AM 46.4 °F 41.9 °F 23.0 °F 40% 30.04 in 10.0 mi WNW 9.2 mph - N/A   Clear
9:35 AM 48.2 °F - 23.0 °F 37% 30.04 in 10.0 mi WNW 13.8 mph - N/A   Clear
9:55 AM 50.0 °F - 23.0 °F 35% 30.03 in 10.0 mi WNW 13.8 mph - N/A   Clear
10:15 AM 51.8 °F - 23.0 °F 33% 30.03 in 10.0 mi WNW 18.4 mph 21.9 mph N/A   Clear
10:35 AM 53.6 °F - 23.0 °F 30% 30.03 in 10.0 mi WNW 16.1 mph 21.9 mph N/A   Clear
10:55 AM 53.6 °F - 23.0 °F 30% 30.02 in 10.0 mi NW 19.6 mph 24.2 mph N/A   Clear
11:15 AM 53.6 °F - 23.0 °F 30% 30.01 in 10.0 mi WNW 17.3 mph 25.3 mph N/A   Clear
11:35 AM 55.4 °F - 21.2 °F 26% 30.01 in 10.0 mi WNW 23.0 mph 31.1 mph N/A   Clear
11:55 AM 55.4 °F - 17.6 °F 23% 29.99 in 10.0 mi NW 21.9 mph 28.8 mph N/A   Clear
12:15 PM 55.4 °F - 17.6 °F 23% 29.98 in 10.0 mi WNW 20.7 mph 27.6 mph N/A   Clear
12:35 PM 55.4 °F - 17.6 °F 23% 29.97 in 10.0 mi WNW 20.7 mph 32.2 mph N/A   Clear
12:55 PM 55.4 °F - 19.4 °F 25% 29.96 in 10.0 mi WNW 25.3 mph 32.2 mph N/A   Clear
1:15 PM 55.4 °F - 17.6 °F 23% 29.95 in 10.0 mi West 20.7 mph 29.9 mph N/A   Clear
1:35 PM 55.4 °F - 17.6 °F 23% 29.95 in 10.0 mi West 24.2 mph 32.2 mph N/A   Clear
1:55 PM 55.4 °F - 17.6 °F 23% 29.94 in 10.0 mi WNW 26.5 mph 36.8 mph N/A   Clear
2:15 PM 55.4 °F - 17.6 °F 23% 29.94 in 10.0 mi West 24.2 mph 33.4 mph N/A   Clear
2:35 PM 55.4 °F - 15.8 °F 21% 29.94 in 10.0 mi West 26.5 mph 31.1 mph N/A   Clear
2:55 PM 55.4 °F - 17.6 °F 23% 29.94 in 10.0 mi WNW 24.2 mph 32.2 mph N/A   Clear
3:15 PM 55.4 °F - 19.4 °F 25% 29.94 in 10.0 mi West 19.6 mph 32.2 mph N/A   Clear
3:35 PM 55.4 °F - 17.6 °F 23% 29.94 in 10.0 mi West 20.7 mph 35.7 mph N/A   Clear
3:55 PM 55.4 °F - 15.8 °F 21% 29.95 in 10.0 mi WNW 20.7 mph 33.4 mph N/A   Clear
4:15 PM 53.6 °F - 15.8 °F 22% 29.95 in 10.0 mi West 21.9 mph 28.8 mph N/A   Clear
4:35 PM 53.6 °F - 15.8 °F 22% 29.95 in 10.0 mi West 16.1 mph 26.5 mph N/A   Clear
4:55 PM 51.8 °F - 15.8 °F 24% 29.95 in 10.0 mi West 21.9 mph 25.3 mph N/A   Clear
5:15 PM 50.0 °F - 15.8 °F 26% 29.95 in 10.0 mi West 20.7 mph 36.8 mph N/A   Clear
5:35 PM 50.0 °F - 15.8 °F 26% 29.96 in 10.0 mi WNW 20.7 mph 29.9 mph N/A   Clear
5:55 PM 48.2 °F - 15.8 °F 27% 29.98 in 10.0 mi West 13.8 mph - N/A   Clear
6:15 PM 48.2 °F - 15.8 °F 27% 29.99 in 10.0 mi WNW 13.8 mph - N/A   Clear
6:35 PM 48.2 °F - 15.8 °F 27% 30.00 in 10.0 mi WNW 16.1 mph 24.2 mph N/A   Clear
6:55 PM 48.2 °F - 15.8 °F 27% 30.02 in 10.0 mi WNW 12.7 mph - N/A   Clear
7:15 PM 46.4 °F 40.7 °F 15.8 °F 29% 30.03 in 10.0 mi WNW 12.7 mph 17.3 mph N/A   Clear
7:35 PM 46.4 °F 40.7 °F 14.0 °F 27% 30.04 in 10.0 mi WNW 12.7 mph - N/A   Clear
7:55 PM 44.6 °F 40.2 °F 14.0 °F 29% 30.05 in 10.0 mi NW 8.1 mph - N/A   Clear
8:15 PM 39.2 °F 33.0 °F 14.0 °F 36% 30.07 in 10.0 mi NW 9.2 mph - N/A   Clear
8:35 PM 41.0 °F 33.9 °F 15.8 °F 36% 30.08 in 10.0 mi WNW 12.7 mph - N/A   Clear
8:55 PM 39.2 °F 33.0 °F 15.8 °F 39% 30.10 in 10.0 mi NNW 9.2 mph - N/A   Clear
9:15 PM 37.4 °F 30.8 °F 14.0 °F 38% 30.10 in 10.0 mi NW 9.2 mph - N/A   Clear
9:35 PM 37.4 °F 31.4 °F 14.0 °F 38% 30.12 in 10.0 mi North 8.1 mph - N/A   Clear
9:55 PM 35.6 °F 29.9 °F 14.0 °F 41% 30.13 in 10.0 mi North 6.9 mph - N/A   Clear
10:15 PM 35.6 °F 28.0 °F 14.0 °F 41% 30.14 in 10.0 mi North 10.4 mph - N/A   Clear
10:35 PM 35.6 °F 27.1 °F 14.0 °F 41% 30.14 in 10.0 mi North 12.7 mph - N/A   Clear
10:55 PM 35.6 °F 27.1 °F 14.0 °F 41% 30.15 in 10.0 mi North 12.7 mph - N/A   Clear
11:15 PM 33.8 °F 25.8 °F 10.4 °F 38% 30.15 in 10.0 mi NNW 10.4 mph - N/A   Clear
11:35 PM 32.0 °F 22.1 °F 10.4 °F 41% 30.15 in 10.0 mi NNW 13.8 mph - N/A   Clear
11:55 PM 32.0 °F 22.1 °F 10.4 °F 41% 30.15 in 10.0 mi NNW 13.8 mph - N/A   Clear